[[{"header":{"parameterUnit":"m.s-1","parameterCategory":1,"la1":30.2991,"la2":30.254,"lo1":-89.0895,"lo2":-89.0444,"dy":0.0017,"dx":0.0017,"nx":28,"ny":28,"refTime":"2025-09-08T09:00:00:Z","depth":0,"parameterNumber":2,"parameterNumberName":"U-component_of_WINDS"},"data":[0,0,0,0,0,0,0,0,0,0,0,0,0,0,0,0,0,0,0,0,0,0,0,0,0,0,0,0,0,0,0,0,0,0,0,0,0,0,0,0,0,0,0,0,0,0,0,0,0,0,0,0,0,0,0,0,0,0,-2.5997,-2.5997,0,-2.6025,-2.6025,-2.6025,-2.5966,-2.5964,-2.5962,-2.596,-2.5989,-2.5992,-2.5994,0,0,0,0,0,0,0,0,0,0,0,0,0,-2.5893,-2.5896,-2.5997,-2.5997,-2.5998,-2.6025,-2.6025,-2.6025,-2.5966,-2.5964,-2.5962,-2.5959,-2.5989,-2.5992,-2.5995,0,0,0,0,0,0,0,0,0,0,0,0,0,-2.5932,-2.5896,-2.5997,-2.5971,-2.5969,-2.6025,-2.6025,-2.6025,-2.5967,-2.5964,-2.5961,-2.5958,-2.5988,-2.5991,-2.5995,-2.6077,0,0,-2.6007,-2.6009,0,0,0,0,0,0,0,0,-2.5929,-2.5935,-2.5975,-2.5973,-2.5971,-2.5989,-2.5999,-2.6043,-2.5967,-2.5968,-2.596,-2.5957,-2.5992,-2.5995,-2.6006,-2.6078,-2.6079,-2.6007,-2.601,-2.6011,-2.6012,0,0,0,0,0,0,0,-2.5927,-2.5934,-2.6008,-2.5975,-2.5973,-2.5959,-2.5961,-2.6007,-2.5996,-2.5967,-2.5963,-2.5967,-2.599,-2.6003,-2.6007,-2.608,-2.6007,-2.6011,-2.6013,-2.6014,-2.622,-2.6223,0,0,0,0,0,0,-2.5927,-2.5932,-2.6007,-2.6009,-2.5943,-2.5963,-2.5965,-2.5986,-2.5995,-2.5993,-2.597,-2.5964,-2.5998,-2.6002,-2.6008,-2.6105,-2.6011,-2.6015,-2.6017,-2.6217,-2.6221,-2.6225,0,0,0,0,0,0,-2.5925,-2.5935,-2.6006,-2.5969,-2.5977,-2.5968,-2.5991,-2.5988,-2.6001,-2.5997,-2.5994,-2.5985,-2.5996,-2.6002,-2.606,-2.6105,-2.6017,-2.602,-2.6214,-2.6218,-2.6223,-2.63,0,0,0,0,0,0,-2.5923,-2.5934,-2.5965,-2.597,-2.5979,-2.6058,-2.5994,-2.5991,-2.6008,-2.6001,-2.601,-2.6009,-2.5994,-2.6055,-2.6064,-2.6109,-2.6023,-2.621,-2.6216,-2.6221,-2.6293,-2.6306,-2.6318,0,0,0,0,0,-2.5919,-2.5986,-2.5967,-2.5976,-2.6018,-2.6061,-2.6066,-2.6047,-2.6012,-2.6043,-2.604,-2.6009,-2.6098,-2.6061,-2.6071,-2.6118,-2.6207,-2.6214,-2.6221,-2.6288,-2.6304,-2.6317,0,0,0,0,0,0,-2.5986,-2.5986,-2.5965,-2.6035,-2.6049,-2.6051,-2.609,-2.6065,-2.6088,-2.6081,-2.6057,-2.6059,-2.6122,-2.6125,-2.6084,-2.6197,-2.6146,-2.6156,-2.6194,-2.6209,-2.6221,-2.622,-2.6026,0,0,0,0,0,-2.6009,-2.6044,-2.6041,-2.6103,-2.6111,-2.6099,-2.6117,-2.6101,-2.6114,-2.612,-2.6121,-2.6135,-2.6166,-2.6187,-2.6216,-2.6292,-2.6294,-2.6329,-2.6342,-2.6352,-2.6361,-2.6403,-2.6419,-2.6248,-2.6248,-2.6248,0,0,-2.6057,-2.6061,-2.6084,-2.6117,-2.6125,-2.6163,-2.6105,-2.6146,-2.6174,-2.6126,-2.6181,-2.6183,-2.6197,-2.6265,-2.6295,-2.6269,-2.6408,-2.6361,-2.6369,-2.6373,-2.6412,-2.6428,-2.6443,-2.6253,-2.6252,-2.6251,0,0,-2.6163,-2.6169,-2.6222,-2.6232,-2.6245,-2.6237,-2.6249,-2.6255,-2.6255,-2.6309,-2.6275,-2.6307,-2.6361,-2.6373,-2.6386,-2.6496,-2.6469,-2.6506,-2.6571,-2.6613,-2.6626,-2.6638,-2.6679,-2.6694,-2.6514,-2.6515,-2.6515,0,-2.6221,-2.6276,-2.6252,-2.6297,-2.6313,-2.6271,-2.6325,-2.6335,-2.6357,-2.6369,-2.634,-2.6407,-2.6413,-2.6484,-2.6511,-2.6522,-2.6537,-2.6506,-2.6626,-2.6637,-2.6648,-2.6687,-2.6703,-2.6519,-2.6519,-2.6518,-2.6518,0,-2.6347,-2.6385,-2.6426,-2.6449,-2.6469,-2.6518,-2.6503,-2.6526,-2.6508,-2.6503,-2.6559,-2.6565,-2.6595,-2.661,-2.6592,-2.6678,-2.6662,-2.663,-2.6578,-2.667,-2.6706,-2.672,-2.6526,-2.6524,-2.6523,-2.6522,0,0,-2.6498,-2.6507,-2.6523,-2.6533,-2.6544,-2.6574,-2.662,-2.6649,-2.667,-2.6686,-2.6726,-2.6772,-2.6742,-2.6757,-2.674,-2.6776,-2.6866,-2.6739,-2.6739,-2.6764,-2.6962,-2.6989,-2.7006,-2.6847,-2.6849,-2.6851,-2.6962,0,-2.6605,-2.6686,-2.6667,-2.6747,-2.6783,-2.6743,-2.6784,-2.6796,-2.6792,-2.6822,-2.6817,-2.6851,-2.6808,-2.6817,-2.685,-2.6848,-2.6905,-2.6839,-2.6885,-2.6887,-2.6885,-2.7025,-2.7053,-2.7157,-2.6976,-2.6978,-2.698,0,-2.6741,-2.6763,-2.6847,-2.6854,-2.6868,-2.6905,-2.693,-2.6958,-2.6971,-2.6965,-2.6982,-2.6958,-2.7005,-2.6952,-2.7016,-2.6972,-2.6989,-2.699,-2.6994,-2.6999,-2.6941,-2.7036,-2.7189,-2.7206,-2.7002,-2.7,-2.6998,0,-2.6846,-2.6896,-2.6953,-2.6963,-2.6971,-2.6998,-2.7003,-2.7012,-2.7031,-2.7052,-2.7064,-2.709,-2.7106,-2.7127,-2.7111,-2.7073,-2.7179,-2.7124,-2.7177,-2.7178,-2.7203,-2.7203,-2.7364,-2.7211,-2.7211,-2.721,-2.721,0,-2.6969,-2.7022,-2.7,-2.7036,-2.7095,-2.7071,-2.713,-2.713,-2.7139,-2.7174,-2.714,-2.7174,-2.715,-2.7182,-2.7169,-2.7226,-2.7232,-2.723,-2.7227,-2.7235,-2.7235,-2.7247,-2.724,-2.7214,-2.7213,-2.7213,-2.7212,0,-2.7097,-2.7084,-2.7144,-2.7146,-2.7148,-2.7192,-2.7194,-2.7227,-2.722,-2.7265,-2.7274,-2.7263,-2.7299,-2.7285,-2.7322,-2.7314,-2.7387,-2.7373,-2.7383,-2.738,-2.7435,-2.7431,-2.7612,-2.7635,-2.7465,-2.7467,-2.7468,0,-2.7177,-2.7218,-2.7224,-2.7245,-2.7253,-2.7287,-2.7305,-2.7283,-2.7304,-2.7321,-2.7353,-2.7385,-2.741,-2.7469,-2.7465,-2.7494,-2.7481,-2.7542,-2.7486,-2.7493,-2.7485,-2.7484,-2.7488,-2.7555,-2.7557,-2.7558,-2.756,0,-2.7322,-2.7314,-2.7342,-2.7369,-2.7392,-2.7412,-2.7428,-2.7447,-2.7426,-2.7451,-2.7487,-2.7507,-2.7545,-2.7578,-2.7604,-2.7608,-2.7582,-2.7577,-2.7592,-2.7601,-2.7607,-2.7607,-2.7417,-2.7574,-2.7572,-2.7571,-2.7571,-2.757,-2.7431,-2.7465,-2.7476,-2.7508,-2.7518,-2.7535,-2.7566,-2.7563,-2.7593,-2.7622,-2.7607,-2.7649,-2.766,-2.7692,-2.77,-2.7733,-2.771,-2.773,-2.7735,-2.7741,-2.7749,-2.7599,-2.7738,-2.7737,-2.7737,-2.7736,-2.7736,0,-2.7576,-2.758,-2.7611,-2.7635,-2.7661,-2.7632,-2.7649,-2.7673,-2.771,-2.7723,-2.7748,-2.779,-2.7822,-2.782,-2.7849,-2.7876,-2.7865,-2.7885,-2.7884,-2.7886,-2.7768,-2.7754,-2.7894,-2.7894,-2.7894,-2.7894,-2.7894,-2.7894,-2.7655,-2.7712,-2.7705,-2.7767,-2.7771,-2.7812,-2.7824,-2.7839,-2.7849,-2.7898,-2.7924,-2.7922,-2.7929,-2.7959,-2.7987,-2.7985,-2.7999,-2.8025,-2.8019,-2.7909,-2.7894,-2.7879,-2.7866,-2.8027,-2.8027,-2.8134,-2.8135,-2.8136]},{"header":{"parameterUnit":"m.s-1","parameterCategory":1,"la1":30.2991,"la2":30.254,"lo1":-89.0895,"lo2":-89.0444,"dy":0.0017,"dx":0.0017,"nx":28,"ny":28,"refTime":"2025-09-08T09:00:00:Z","depth":0,"parameterNumber":3,"parameterNumberName":"V-component_of_WINDS"},"data":[0,0,0,0,0,0,0,0,0,0,0,0,0,0,0,0,0,0,0,0,0,0,0,0,0,0,0,0,0,0,0,0,0,0,0,0,0,0,0,0,0,0,0,0,0,0,0,0,0,0,0,0,0,0,0,0,0,0,-4.9061,-4.9061,0,-4.9111,-4.9111,-4.9112,-4.9065,-4.9063,-4.9061,-4.906,-4.9106,-4.9109,-4.9112,0,0,0,0,0,0,0,0,0,0,0,0,0,-4.8921,-4.8923,-4.9061,-4.9061,-4.9062,-4.9111,-4.9111,-4.9112,-4.9065,-4.9063,-4.9061,-4.9059,-4.9105,-4.9109,-4.9112,0,0,0,0,0,0,0,0,0,0,0,0,0,-4.8977,-4.8924,-4.9061,-4.9045,-4.9044,-4.9111,-4.9111,-4.9112,-4.9066,-4.9063,-4.906,-4.9058,-4.9104,-4.9109,-4.9113,-4.9197,0,0,-4.9127,-4.9129,0,0,0,0,0,0,0,0,-4.8974,-4.8982,-4.9046,-4.9046,-4.9045,-4.9079,-4.9079,-4.914,-4.9067,-4.9057,-4.9059,-4.9056,-4.9099,-4.9104,-4.9119,-4.9199,-4.9201,-4.9127,-4.913,-4.9132,-4.9133,0,0,0,0,0,0,0,-4.897,-4.898,-4.908,-4.9047,-4.9047,-4.9034,-4.9039,-4.909,-4.9093,-4.9058,-4.9055,-4.9061,-4.9098,-4.9115,-4.912,-4.9202,-4.9127,-4.9131,-4.9134,-4.9135,-4.9352,-4.9355,0,0,0,0,0,0,-4.8968,-4.8977,-4.9079,-4.9082,-4.9002,-4.9038,-4.9044,-4.9071,-4.9093,-4.9093,-4.9064,-4.9059,-4.9109,-4.9115,-4.9121,-4.9221,-4.9132,-4.9136,-4.9138,-4.9349,-4.9353,-4.9356,0,0,0,0,0,0,-4.8966,-4.8978,-4.9077,-4.9029,-4.904,-4.9044,-4.9074,-4.9073,-4.909,-4.9097,-4.9097,-4.9081,-4.9107,-4.9115,-4.9179,-4.9222,-4.9138,-4.9142,-4.9346,-4.935,-4.9355,-4.9421,0,0,0,0,0,0,-4.8962,-4.8977,-4.901,-4.903,-4.9043,-4.9135,-4.9077,-4.9076,-4.9098,-4.9093,-4.9113,-4.9114,-4.9105,-4.9172,-4.9183,-4.9227,-4.9145,-4.9342,-4.9348,-4.9353,-4.9415,-4.9428,-4.9438,0,0,0,0,0,-4.8957,-4.9026,-4.9012,-4.9025,-4.9084,-4.9137,-4.9145,-4.9135,-4.9102,-4.9135,-4.9139,-4.9113,-4.9216,-4.9179,-4.9191,-4.9237,-4.9339,-4.9346,-4.9353,-4.941,-4.9425,-4.9438,0,0,0,0,0,0,-4.9009,-4.9028,-4.9013,-4.909,-4.9113,-4.9129,-4.917,-4.9151,-4.9182,-4.9175,-4.916,-4.9165,-4.9233,-4.9241,-4.92,-4.9319,-4.9272,-4.9281,-4.9311,-4.9326,-4.9337,-4.9334,-4.9149,0,0,0,0,0,-4.903,-4.9073,-4.9086,-4.9153,-4.9166,-4.9166,-4.9189,-4.918,-4.9201,-4.921,-4.9219,-4.924,-4.9277,-4.9302,-4.9336,-4.9416,-4.942,-4.9453,-4.9465,-4.9474,-4.9483,-4.9526,-4.9541,-4.9379,-4.9379,-4.9379,0,0,-4.9073,-4.9089,-4.9116,-4.9164,-4.9181,-4.9224,-4.9174,-4.9222,-4.9254,-4.9217,-4.9278,-4.9285,-4.9308,-4.938,-4.9412,-4.9389,-4.9528,-4.9483,-4.9491,-4.9494,-4.9534,-4.955,-4.9563,-4.9384,-4.9383,-4.9382,0,0,-4.9174,-4.919,-4.9248,-4.9266,-4.9292,-4.9292,-4.9306,-4.9325,-4.9329,-4.9391,-4.9364,-4.9401,-4.9465,-4.9482,-4.9499,-4.9608,-4.9585,-4.9619,-4.9679,-4.9721,-4.9734,-4.9745,-4.9784,-4.9798,-4.9627,-4.9627,-4.9628,0,-4.9224,-4.929,-4.928,-4.9331,-4.9352,-4.9322,-4.938,-4.9397,-4.9433,-4.9448,-4.9421,-4.9502,-4.9514,-4.9591,-4.9617,-4.9632,-4.9647,-4.9617,-4.9733,-4.9744,-4.9755,-4.9791,-4.9806,-4.9631,-4.9631,-4.9631,-4.963,0,-4.935,-4.9396,-4.944,-4.9477,-4.9503,-4.9557,-4.9554,-4.9582,-4.957,-4.9573,-4.9635,-4.965,-4.9687,-4.9704,-4.9693,-4.9779,-4.9764,-4.9736,-4.9688,-4.9774,-4.9809,-4.9823,-4.9637,-4.9636,-4.9635,-4.9634,0,0,-4.9485,-4.9517,-4.9533,-4.9549,-4.9576,-4.9611,-4.9663,-4.9701,-4.9725,-4.975,-4.9793,-4.9848,-4.9823,-4.9842,-4.9832,-4.987,-4.9955,-4.9837,-4.9837,-4.9858,-5.005,-5.0072,-5.0088,-4.994,-4.9942,-4.9944,-5.0049,0,-4.9587,-4.968,-4.9673,-4.976,-4.9802,-4.9775,-4.982,-4.9841,-4.9844,-4.988,-4.9882,-4.9922,-4.9885,-4.9897,-4.9933,-4.9937,-4.9993,-4.9929,-4.9979,-4.9981,-4.9975,-5.0106,-5.0129,-5.0227,-5.0062,-5.0064,-5.0066,0,-4.9719,-4.9751,-4.9843,-4.9864,-4.9881,-4.9923,-4.9957,-4.9991,-5.0014,-5.0014,-5.0036,-5.002,-5.0072,-5.0023,-5.0093,-5.005,-5.007,-5.0075,-5.0078,-5.0083,-5.0029,-5.0114,-5.0258,-5.0273,-5.0087,-5.0085,-5.0084,0,-4.9809,-4.9874,-4.9938,-4.9953,-4.9979,-5.0009,-5.002,-5.004,-5.0064,-5.0093,-5.0108,-5.0142,-5.0161,-5.0188,-5.0181,-5.0146,-5.0253,-5.0204,-5.0254,-5.0254,-5.0278,-5.0276,-5.0426,-5.029,-5.029,-5.029,-5.0289,0,-4.9924,-4.9981,-4.9979,-5.0018,-5.0082,-5.0072,-5.0134,-5.0142,-5.016,-5.02,-5.0177,-5.0214,-5.0203,-5.0239,-5.0234,-5.0293,-5.0301,-5.0302,-5.03,-5.0305,-5.0305,-5.0317,-5.0311,-5.0293,-5.0293,-5.0292,-5.0291,0,-5.0035,-5.0036,-5.0104,-5.0123,-5.0129,-5.0175,-5.0191,-5.0227,-5.0229,-5.028,-5.0291,-5.0293,-5.0335,-5.0331,-5.0377,-5.0373,-5.0447,-5.0436,-5.044,-5.0438,-5.0488,-5.0484,-5.0652,-5.0674,-5.0523,-5.0524,-5.0526,0,-5.0108,-5.0152,-5.0177,-5.0203,-5.0217,-5.0259,-5.0283,-5.0275,-5.0301,-5.033,-5.0363,-5.0403,-5.0434,-5.0502,-5.0507,-5.0542,-5.0532,-5.0589,-5.0537,-5.054,-5.0533,-5.0531,-5.0535,-5.0599,-5.0601,-5.0602,-5.0603,0,-5.0239,-5.0238,-5.0274,-5.0312,-5.0342,-5.0371,-5.0397,-5.0418,-5.0413,-5.0443,-5.0486,-5.0511,-5.0559,-5.0598,-5.0632,-5.0642,-5.0622,-5.0619,-5.0633,-5.0638,-5.0638,-5.0639,-5.0468,-5.0616,-5.0614,-5.0613,-5.0613,-5.0612,-5.0334,-5.0372,-5.0396,-5.0437,-5.0456,-5.0481,-5.0517,-5.0524,-5.0561,-5.06,-5.0593,-5.0641,-5.0662,-5.0705,-5.0719,-5.0756,-5.0735,-5.0755,-5.076,-5.0765,-5.0771,-5.0633,-5.0762,-5.0762,-5.0761,-5.0761,-5.0761,0,-5.0463,-5.0478,-5.0516,-5.0555,-5.0587,-5.0567,-5.0595,-5.0623,-5.0667,-5.0689,-5.0721,-5.077,-5.0809,-5.0817,-5.0854,-5.0882,-5.0873,-5.0892,-5.089,-5.0892,-5.0787,-5.0772,-5.0898,-5.0898,-5.0898,-5.0898,-5.0898,-5.0898,-5.0535,-5.0598,-5.06,-5.0672,-5.0685,-5.0734,-5.0752,-5.0774,-5.0792,-5.0849,-5.0882,-5.0888,-5.0904,-5.0942,-5.0976,-5.0977,-5.0992,-5.1014,-5.1012,-5.0913,-5.09,-5.0887,-5.0872,-5.1017,-5.1017,-5.1114,-5.1115,-5.1115]}]]